Location: Newark
(39.0622°N, 106.5590°E)
Time: 19:40:01
(UTC+00:00)

Courier 1B - Pass Details

Date: 25 January 2020
Orbit: 962 x 1209 km, 28.3° (Epoch: 22 February)

Event Time Altitude Azimuth Distance (km) Brightness Sun altitude
Rises 23:04:43 0° 261° (W) 3,986 - -12.0°
Exits shadow 23:07:18 - 253° (WSW) 3,210 9.7 -11.6°
Reaches altitude 10° 23:07:50 10° 251° (WSW) 3,058 9.6 -11.5°
Maximum altitude 23:14:16 30° 193° (SSW) 1,972 9.1 -10.3°
Drops below altitude 10° 23:20:53 10° 136° (SE) 3,136 11.2 -9.0°
Sets 23:24:07 0° 126° (SE) 4,103 12.4 -8.4°
